User: anonymous   Login
Location: Unspecified
(0.0000°N, 0.0000°E)
Time: 19:49:23
(UTC+00:00)
Language:

PLEIADES 1B - Orbit

View from above orbital plane
View from above orbital plane
View from above satellite
View from above satellite

Ground track
Ground track

The orbit data is extracted from the following two-line orbital elements,

1 39019U 12068A   16211.46979501  .00000043  00000-0  19142-4 0  9999
2 39019  98.2001 285.2789 0001226  78.7718 281.3620 14.58562130194678
Epoch (UTC): 29 July 2016 11:16:30
Eccentricity: 0.0001226
inclination: 98.2001°
perigee height: 697 km
apogee height: 698 km
right ascension of ascending node: 285.2789°
argument of perigee: 78.7718°
revolutions per day: 14.58562130
mean anomaly at epoch: 281.3620°
orbit number at epoch: 19467

The dashed part of the orbit path shows where the satellite is in the earth's shadow,  

DLR